Kezdőlap
METAR-TAF:

METAR-TAF

Repülőterek :

S.t James Municipal Airport

St. James, Minnesota, Amerikai Egyesült Államok

földrajzi szélesség: 43-59-11N, földrajzi hosszúság: 094-33-29W, magasság: 325 m

Jelenlegi meteorológiai megfigyelések

A jelentés 10 perccel ezelõtt készült, 01:35 UTC
Északnyugati szél 8 kt
Hőmérséklet 18°C
Páratartalom 94%
Légköri nyomás 1009 hPa
Látótávolság: 8.0 km

METAR: KJYG 270135Z 32008KT 5SM 18/17 A2981 RMK AO2 LTG DSNT SE PWINO

Idő: 20:45 (01:45 UTC)


TAF: hiányzik

Meteorológiai megfigyelések és előrejelzések több, mint 4000 repülőtéren (METAR és TAF jelentéseket).

A térképen piros és sárga pontok jelzik az elérhető meteorológiai állomásokat.

Mozgassa az egeret a pont fölött, hogy megjelenjen az állomás neve.

Azután kattintson az időjárási megfigyelések és előrejelzések megtekintéséhez.

A térkép megváltoztatása: kattintson a fekete keresztel jelölt zöld gombra ráközelítéshez, a vonallal jelölt zöld gombra távolításhoz, vagy a zöld nyilakra a szomszédos térképek eléréséhez.


METAR-TAF: